Weather Roundup
Issued by NWS Chicago, IL

Home | Current Version | Previous Version | Graphics & Text | Print | Product List | Glossary On
Versions: 1 2 3 4 5 6 7 8 9 10 11 12 13 14 15 16 17 18 19 20 21 22 23 24 25 26 27 28 29 30 31 32 33 34 35 36 37 38 39 40 41 42 43 44 45 46 47 48 49 50
000
NZUS59 KLOT 170108
HRRLOT

CHICAGO AREA WEATHER ROUNDUP
NATIONAL WEATHER SERVICE CHICAGO/ROMEOVILLE IL
700 PM CST MON JAN 16 2017

NOTE: "FAIR" INDICATES FEW OR NO CLOUDS BELOW 12,000 FEET WITH NO
SIGNIFICANT WEATHER AND/OR OBSTRUCTIONS TO VISIBILITY.

* THESE STATIONS ARE NOT UNDER NWS QUALITY CONTROL. THEY ALSO MAY NOT
  REPORT WEATHER SUCH AS PRECIPITATION OR FOG.

ILZ005-006-012>014-019>023-170200-
NORTHEAST ILLINOIS

CITY           SKY/WX    TMP DP  RH WIND       PRES   REMARKS
OHARE          LGT RAIN  36  35  96 E8        29.99F VSB 1/2
MIDWAY         LGT RAIN  36  34  92 E8        30.00F VSB 1/2
AURORA         CLOUDY    38  36  92 E10       29.97F FOG
LANSING*       LGT RAIN  38  38 100 SE6       30.01F
JOLIET*        LGT RAIN  40  40 100 CALM      29.98F
WAUKEGAN       FOG       36  36 100 E10       30.00F VSB 3/4
DUPAGE AIRPORT LGT RAIN  37  34  89 E9        29.97F FOG
WHEELING       LGT RAIN  36  35  96 E7        30.01F FOG
KANKAKEE*      CLOUDY    39  38  98 E10       29.97F FOG
MORRIS*        RAIN      37  36  98 E5        29.97F
LEWIS AIRPORT* LGT RAIN  37  37 100 E9        29.98F
NORTHERLY ISL    N/A     33  33 100 NE6         N/A  WCI  28
$$

WIZ051-052-058>065-066-070>072-170200-
SOUTHEAST WISCONSIN

CITY           SKY/WX    TMP DP  RH WIND       PRES   REMARKS
MILWAUKEE      LGT RAIN  36  34  92 E14       30.04F FOG
KENOSHA*       FOG       36  35  96 E12       30.02F VSB 1/2
RACINE*        LGT RAIN  36  34  92 E12       30.05F FOG
WAUKESHA       LGT RAIN  32  32 100 E17       30.03F FOG     WCI  21
WEST BEND      RAIN      32  32 100 E8        30.03F WCI  25
$$

INZ001>003-010>013-019-020-170200-
NORTHWEST INDIANA

CITY           SKY/WX    TMP DP  RH WIND       PRES   REMARKS
GARY*          CLOUDY    39  39 100 E3        30.02F FOG
MICHIGAN CITY* NOT AVBL
RENSSELAER*    NOT AVBL
VALPARAISO     FOG       37  37 100 E8        30.02F VSB 1/4
$$

LMZ740>746-170200-
SOUTHERN LAKE MICHIGAN

STATION/POSITION TIME  SKY/WX   TEMP WIND        PRES    VSBY
                                AIR  DIR/SP/G
                 (UTC)          (F)  (DEG/KT/KT) (MB)    (MI)
HARRISON CRIB    0040            37  100/ 11/ 12   N/A
BURNHAM HARBOR   0100            34   60/  7/  7   N/A
CALUMET HARBOR   0042            34   40/  5/  6 1016.0F
BURNS HARBOR     0040            39  140/ 10/ 14 1016.9F
MICHIGAN CITY    0040            38  110/  7/  9   N/A
$$

ABBREVIATIONS USED IN REMARKS
   TC - TEMPERATURE IN CELSIUS
  WCI - WIND CHILL INDEX
   HX - HEAT INDEX
  VSB - VISIBILITY
$$



USA.gov is the U.S. government's official web portal to all federal, state and local government web resources and services.